Location: *
(48.8780°N, 19.2358°E)
Time: 10:53:11
(UTC+00:00)

Abrixas rocket - Pass Details

Date: 18 October 2019
Orbit: 359 x 367 km, 48.4° (Epoch: 21 November)

Event Time Altitude Azimuth Distance (km) Brightness Sun altitude
Rises 16:21:43 0° 202° (SSW) 2,213 6.4 -6.2°
Reaches altitude 10° 16:24:34 10° 173° (S) 1,368 4.9 -6.7°
Maximum altitude 16:26:04 13° 143° (SE) 1,209 4.3 -6.9°
Drops below altitude 10° 16:27:34 10° 114° (ESE) 1,370 4.3 -7.2°
Enters shadow 16:28:07 - 106° (ESE) 1,497 4.5 -7.3°
